Weather History for KBNO - December, 2012

Change the Weather History Date:

Saturday, December 29, 2012

  Actual Average Record
Temperature  
Mean Temperature 14 °F 23 °F  
Max Temperature 23 °F 34 °F 53 °F (1963)
Min Temperature 5 °F 13 °F -13 °F (1990)
Degree Days  
Heating Degree Days 51 42  
Month to date heating degree days 1107 1186  
Since 1 July heating degree days 2781 3187  
Cooling Degree Days 0 0  
Month to date cooling degree days 0 0  
Year to date cooling degree days 309 215  
Moisture  
Dew Point 14 °F    
Average Humidity 86    
Maximum Humidity 92    
Minimum Humidity 80    
Precipitation  
Precipitation 0.02 in 0.05 in 0.47 in (1981)
Month to date precipitation 1.73 1.46  
Year to date precipitation 10.33 10.83  
Sea Level Pressure  
Sea Level Pressure 30.10 in    
Wind  
Wind Speed 1 mph (South)    
Max Wind Speed 7 mph    
Max Gust Speed 7 mph    
Visibility 6 miles    
Events Fog , Snow    
T = Trace of Precipitation, MM = Missing Value Source: NWS Daily Summary

Daily Weather History Graph

Daily Weather History Graph

Search for Another Location

Airport or City:

Trip Planner

Search our weather history database for the weather conditions in past years. The results will help you decide how hot, cold, wet, or windy it might be!

Date:

Astronomy

Dec. 29, 2012 Rise Set
Actual Time 7:28 AM PST 4:27 PM PST
Civil Twilight 6:56 AM PST 5:00 PM PST
Nautical Twilight 6:19 AM PST 5:36 PM PST
Astronomical Twilight 5:45 AM PST 6:11 PM PST
Moon 6:08 PM PST (12/29) 8:02 AM PST (12/29)
Length of Visible Light 10h 04m
Length of Day
8h 58m
Full, 98% of the Moon is Illuminated
Dec 29
Full
Jan 4
Last Quarter
Jan 11
New
Jan 18
First Quarter
Jan 26
Full

Hourly Weather History & Observations

Time (PST) Temp. Windchill Dew Point Humidity Pressure Visibility Wind Dir Wind Speed Gust Speed Precip Events Conditions
12:53 AM 10.9 °F 0.2 °F 8.1 °F 88% 30.25 in 10.0 mi West 6.9 mph - N/A   Overcast
1:53 AM 15.1 °F 9.4 °F 10.9 °F 84% 30.25 in 10.0 mi West 3.5 mph - N/A   Overcast
2:53 AM 15.1 °F - 12.0 °F 88% 30.25 in 4.0 mi Calm Calm - 0.00 in Snow Light Snow
3:53 AM 15.1 °F - 12.0 °F 88% 30.24 in 5.0 mi Calm Calm - 0.00 in Snow Light Snow
4:53 AM 14.0 °F 8.2 °F 10.9 °F 88% 30.25 in 6.0 mi WSW 3.5 mph - 0.00 in   Overcast
5:53 AM 15.1 °F - 12.0 °F 88% 30.25 in 4.0 mi Calm Calm - 0.00 in Snow Light Snow
6:53 AM 14.0 °F - 10.9 °F 88% 30.25 in 10.0 mi Calm Calm - 0.00 in   Overcast
7:53 AM 12.0 °F - 9.0 °F 88% 30.25 in 10.0 mi Calm Calm - N/A   Overcast
8:53 AM 18.0 °F - 15.1 °F 88% 30.25 in 6.0 mi Calm Calm - 0.00 in Snow Light Snow
9:09 AM 19.4 °F - 15.8 °F 86% 30.08 in 2.5 mi Calm Calm - 0.00 in Snow Light Snow
9:42 AM 17.6 °F - 15.8 °F 93% 30.09 in 4.0 mi Calm Calm - 0.00 in Snow Light Snow
9:53 AM 18.0 °F - 15.1 °F 88% 30.27 in 5.0 mi Calm Calm - 0.00 in Snow Light Snow
10:43 AM 19.4 °F - 15.8 °F 86% 30.08 in 10.0 mi Calm Calm - 0.00 in   Overcast
10:53 AM 19.9 °F - 16.0 °F 85% 30.26 in 10.0 mi Calm Calm - 0.00 in   Overcast
11:01 AM 19.4 °F - 15.8 °F 86% 30.07 in 10.0 mi Calm Calm - N/A   Overcast
11:08 AM 19.4 °F - 15.8 °F 86% 30.07 in 10.0 mi Calm Calm - N/A   Overcast
11:53 AM 19.9 °F 14.9 °F 16.0 °F 85% 30.21 in 3.0 mi SSW 3.5 mph - 0.00 in Snow Light Snow
12:02 PM 19.4 °F - 15.8 °F 86% 30.04 in 2.0 mi Calm Calm - 0.00 in Snow Light Snow
12:20 PM 19.4 °F - 17.6 °F 93% 30.04 in 3.0 mi Calm Calm - 0.00 in Snow Light Snow
12:53 PM 21.0 °F - 17.1 °F 85% 30.17 in 8.0 mi Calm Calm - 0.00 in   Overcast
1:53 PM 21.9 °F 17.2 °F 17.1 °F 82% 30.14 in 9.0 mi ESE 3.5 mph - 0.00 in   Overcast
2:53 PM 21.0 °F 16.2 °F 17.1 °F 85% 30.13 in 10.0 mi SSE 3.5 mph - 0.00 in   Overcast
3:10 PM 21.2 °F - 17.6 °F 86% 30.01 in 10.0 mi Calm Calm - N/A   Overcast
3:46 PM 21.2 °F - 17.6 °F 86% 29.99 in 10.0 mi Calm Calm - N/A   Overcast
3:53 PM 21.0 °F - 17.1 °F 85% 30.12 in 10.0 mi Calm Calm - N/A   Overcast
4:30 PM 19.4 °F 11.5 °F 15.8 °F 86% 29.98 in 10.0 mi East 5.8 mph - N/A   Overcast
4:42 PM 19.4 °F 12.8 °F 15.8 °F 86% 29.98 in 10.0 mi ESE 4.6 mph - N/A   Overcast
4:53 PM 19.0 °F 13.9 °F 16.0 °F 88% 30.11 in 10.0 mi SE 3.5 mph - N/A   Overcast
5:12 PM 19.4 °F - 15.8 °F 86% 29.98 in 10.0 mi Calm Calm - N/A   Overcast
5:42 PM 19.4 °F - 15.8 °F 86% 29.99 in 10.0 mi Calm Calm - N/A   Overcast
5:53 PM 19.9 °F - 16.0 °F 85% 30.13 in 10.0 mi Calm Calm - N/A   Overcast
6:51 PM 19.4 °F - 15.8 °F 86% 30.00 in 7.0 mi Calm Calm - 0.00 in Snow Light Snow
6:53 PM 19.9 °F - 16.0 °F 85% 30.14 in 6.0 mi Calm Calm - 0.00 in Snow Light Snow
7:25 PM 19.4 °F - 15.8 °F 86% 29.99 in 8.0 mi Calm Calm - 0.00 in   Overcast
7:53 PM 19.0 °F - 16.0 °F 88% 30.14 in 10.0 mi Calm Calm - 0.00 in   Overcast
8:26 PM 19.4 °F - 15.8 °F 86% 30.00 in 2.0 mi Calm Calm - 0.01 in Snow Light Snow
8:33 PM 19.4 °F - 15.8 °F 86% 30.00 in 1.8 mi Calm Calm - 0.01 in Snow Light Snow
8:53 PM 19.0 °F - 17.1 °F 92% 30.13 in 2.0 mi Calm Calm - 0.01 in Snow Light Snow
9:08 PM 17.6 °F - 15.8 °F 93% 30.00 in 2.5 mi Calm Calm - 0.00 in Snow Light Snow
9:16 PM 17.6 °F - 15.8 °F 93% 30.00 in 4.0 mi Calm Calm - 0.01 in Snow Light Snow
9:53 PM 15.1 °F - 14.0 °F 95% 30.14 in 3.0 mi Calm Calm - 0.01 in   Overcast
9:56 PM 15.8 °F - 14.0 °F 93% 30.00 in 1.5 mi Calm Calm - N/A   Overcast
10:03 PM 14.0 °F - 12.2 °F 93% 30.00 in 1.0 mi Calm Calm - N/A   Overcast
10:08 PM 12.2 °F - 12.2 °F 100% 30.01 in 2.5 mi Calm Calm - N/A   Mostly Cloudy
10:15 PM 10.4 °F - 8.6 °F 92% 30.01 in 4.0 mi Calm Calm - N/A   Overcast
10:27 PM 8.6 °F - 6.8 °F 92% 30.01 in 5.0 mi Calm Calm - N/A   Mostly Cloudy
10:32 PM 8.6 °F - 6.8 °F 92% 30.01 in 1.5 mi Calm Calm - N/A   Mostly Cloudy
10:34 PM 8.6 °F - 6.8 °F 92% 30.01 in 0.8 mi Calm Calm - N/A   Mostly Cloudy
10:39 PM 8.6 °F - 6.8 °F 92% 30.01 in 0.2 mi Calm Calm - N/A Fog Light Freezing Fog
10:47 PM 8.6 °F 2.0 °F 8.6 °F 100% 30.01 in 0.5 mi NNW 3.5 mph - N/A Fog Light Freezing Fog
10:51 PM 8.6 °F 2.0 °F 6.8 °F 92% 30.01 in 2.0 mi North 3.5 mph - N/A   Partly Cloudy
10:53 PM 8.1 °F 1.4 °F 6.1 °F 92% 30.17 in 5.0 mi NNW 3.5 mph - N/A   Partly Cloudy
11:53 PM 10.0 °F - 7.0 °F 87% 30.17 in 7.0 mi Calm Calm - N/A   Overcast